Starlink 11129

operational
NORAD ID: 60038 Int'l Des: 2024-112 Owner: SPXS Country: US Constellation: starlink
LEOCIRCULAR

About Starlink 11129

Description loading...

Live Position

Loading 3D Globe...

Upcoming Passes

Altitude History

Altitude vs Time

uPlot chart will show altitude changes over time

Two-Line Element Set

1 60038U 24112A 25305.37761370 .00001593 00000-0 18010-4 0 9998
2 60038 53.1598 179.1351 0001307 77.0303 283.0861 15.69701758 80823
Epoch: Nov 1, 2025 • Age: 68 hours

Current Status

Altitude 361.2 km
Velocity 7.70 km/s
Sub-Earth Point 32.24°N, 159.78°W
Launch Date Jun 8, 2024
Age 1.4 years
Type internet

Technical Details

Classification Payload
Mass 960.00 kg
Dry Mass 910.00 kg
Total Mass 960.00 kg
Length 0.30 m
Diameter 4.10 m
Span 29.00 m
Shape Box + pan
Manufacturer SPXS
Bus Type Starlink V2MD
Phase Status In Orbit
Owner/State SPXS/US

Large Constellations

Loading constellations...